Home   Weather   Waterford   Past weeks

Flag for Ireland Past Weather in Waterford, Ireland — Yesterday and Last 2 Weeks

Now
46 °F

Partly sunny.


Feels Like: 40 °F
Forecast: 46 / 51 °F
Wind: 16 mph from South

Location: Cork Airport

Current Time: Apr 29, 2017 at 8:42:02 am

Latest Report: Apr 29, 2017 at 8:00 am


Visibility: N/A

Pressure: 29.74 "Hg

Humidity: 87%

Dew Point: 43 °F

Location of WaterfordLocation

Past Weather in Waterford — Graph

°F

Waterford Temperature Yesterday

Maximum temperature yesterday: 50 °F (at 11:00 am)
Minimum temperature yesterday: 45 °F (at 12:30 am)
Average temperature yesterday: 47 °F

High & Low Weather Summary for the Past Weeks

 TemperatureHumidityPressure
High61 °F (Apr 21, 3:30 pm)100% (Apr 14, 8:00 am)30.63 "Hg (Apr 14, 8:00 am)
Low32 °F (Apr 26, 6:30 am)40% (Apr 25, 12:00 pm)29.77 "Hg (Apr 29, 6:00 am)
Average48 °F76%30.30 "Hg
* Reported Apr 14 7:00 am — Apr 29 7:00 am, Waterford, Weather by CustomWeather, © 2017

Note: Actual official high and low records may vary slightly from our data, if they occured in-between our weather recording intervals... More about our weather records

Advertising

Waterford Weather History for the Previous 24 Hours

Scroll right to see more
 ConditionsComfort  
Time TempWeatherWind HumidityBarometerVisibility
7:00 am
Sat, Apr 29
45 °FSprinkles. Partly sunny.10 mph93%29.77 "HgN/A
6:30 am45 °FPartly sunny.10 mph93%29.77 "HgN/A
6:00 am45 °FPassing clouds.12 mph93%29.77 "HgN/A
5:30 am45 °FSprinkles. Passing clouds.12 mph87%29.80 "HgN/A
5:00 am45 °FPartly cloudy.13 mph87%29.80 "HgN/A
4:30 am45 °FPassing clouds.9 mph81%29.80 "HgN/A
4:00 am46 °FPartly cloudy.13 mph76%29.83 "HgN/A
3:30 am46 °FPassing clouds.10 mph76%29.83 "HgN/A
3:00 am46 °FPassing clouds.10 mph76%29.83 "HgN/A
2:30 am46 °FPassing clouds.10 mph82%29.86 "HgN/A
2:00 am46 °FPassing clouds.10 mph87%29.86 "HgN/A
1:30 am46 °FPassing clouds.10 mph82%29.86 "HgN/A
1:00 am45 °FPassing clouds.10 mph87%29.89 "HgN/A
12:30 am45 °FPassing clouds.8 mph87%29.89 "HgN/A
12:00 am45 °FPassing clouds.5 mph81%29.92 "HgN/A
11:30 pm
Fri, Apr 28
46 °FPassing clouds.8 mph82%29.92 "HgN/A
11:00 pm45 °FPassing clouds.5 mph87%29.92 "HgN/A
10:30 pm45 °FPassing clouds.5 mph81%29.95 "HgN/A
10:00 pm45 °FPassing clouds.6 mph81%29.95 "HgN/A
9:30 pm46 °FPassing clouds.7 mph82%29.95 "HgN/A
9:00 pm46 °FPassing clouds.7 mph82%29.95 "HgN/A
8:30 pm46 °FPartly sunny.8 mph76%29.95 "HgN/A
8:00 pm48 °FPartly sunny.12 mph76%29.95 "HgN/A
7:30 pm48 °FBroken clouds.13 mph76%29.95 "HgN/A
7:00 pm48 °FBroken clouds.14 mph76%29.98 "HgN/A
6:30 pm48 °FBroken clouds.14 mph76%29.98 "HgN/A
6:00 pm50 °FBroken clouds.14 mph82%29.98 "HgN/A
5:30 pm50 °FPartly sunny.15 mph71%29.98 "HgN/A
5:00 pm48 °FBroken clouds.14 mph76%29.98 "HgN/A
4:30 pm48 °FBroken clouds.10 mph76%30.01 "HgN/A
4:00 pm50 °FPartly sunny.12 mph76%30.01 "HgN/A
3:30 pm48 °FScattered showers. Broken clouds.10 mph82%30.04 "HgN/A
3:00 pm46 °FSprinkles. Broken clouds.10 mph87%30.04 "HgN/A
2:30 pm48 °FSprinkles. Partly sunny.15 mph71%30.04 "HgN/A
2:00 pm50 °FBroken clouds.14 mph67%30.04 "HgN/A
1:30 pm48 °FBroken clouds.12 mph66%30.04 "HgN/A
1:00 pm48 °FPartly sunny.9 mph71%30.07 "HgN/A
12:30 pm48 °FBroken clouds.8 mph66%30.07 "HgN/A
12:00 pm48 °FBroken clouds.7 mph66%30.07 "HgN/A
11:30 am48 °FPartly sunny.7 mph62%30.07 "HgN/A
11:00 am50 °FPartly sunny.6 mph54%30.09 "HgN/A
10:30 am48 °FPartly sunny.5 mph62%30.09 "HgN/A
10:00 am48 °FPartly sunny.5 mph58%30.09 "HgN/A
9:30 am46 °FPartly sunny.5 mph66%30.09 "HgN/A
8:30 am45 °FPartly sunny.7 mph76%30.12 "HgN/A
8:00 am45 °FPartly sunny.7 mph71%30.12 "HgN/A
Weather by CustomWeather, © 2017

See weather overviewHow to use our weather pages